Location: St. Andrews
(45.0670°N, 67.0330°W)
Time: 15:27:20
(UTC-04:00)

Amateur Radio Satellites - All Passes

Search period start: 24 February 2017 14:57
Search period end: 25 February 2017 14:57
Location: St. Andrews, 45.0670°N, 67.0330°W

Satellite Date Start Highest point End Downlink Frequencies (MHz)
Time Altitude Azimuth
BEESAT 24 Feb 15:03:02 15:07:41 47° 99° (E) 15:12:16 436.000
DX 1 24 Feb 15:08:07 15:09:04 11° 302° (WNW) 15:10:01 434.975-435.025
Tancredo 1 24 Feb 15:12:27 15:15:30 38° 218° (SW) 15:18:30 437.200
UKube-1 24 Feb 15:22:52 15:23:21 10° 303° (WNW) 15:23:51 .
RS-15 24 Feb 15:28:06 15:30:43 11° 90° (E) 15:33:21 29.354- 29.394
ITAMSAT 1 24 Feb 15:30:18 15:35:09 40° 262° (W) 15:40:05 435.822/435.867
BEESAT 3 24 Feb 15:32:18 15:36:20 84° 236° (SW) 15:40:20 437.485
MOZHAYETS 4 24 Feb 15:33:41 15:37:57 36° 97° (E) 15:42:10
PCSat 24 Feb 15:46:55 15:50:52 21° 107° (ESE) 15:54:49 145.827
BEESAT 2 24 Feb 16:08:09 16:12:14 85° 235° (SW) 16:16:16 435.950
KKS-1 24 Feb 16:12:38 16:16:15 24° 94° (E) 16:19:52 437.445
ISS 24 Feb 16:22:20 16:23:05 11° 229° (SW) 16:23:49 437.550
XW-2B 24 Feb 16:26:09 16:26:56 11° 61° (ENE) 16:27:43 145.730 - 145.750
CUBESAT XI-V 24 Feb 16:30:32 16:34:15 24° 93° (E) 16:37:55 437.345
CUTE-I 24 Feb 16:32:04 16:35:48 20° 59° (ENE) 16:39:33 437.470
XW-2C 24 Feb 16:33:36 16:35:25 13° 63° (ENE) 16:37:15 145.795 - 145.815
ITUPSAT 1 24 Feb 16:33:57 16:37:56 26° 296° (WNW) 16:41:53 437.325
BEESAT 24 Feb 16:41:28 16:45:09 22° 297° (WNW) 16:48:49 436.000
HO-68 24 Feb 16:43:27 16:45:29 11° 43° (NE) 16:47:31 435.675
AO-7 24 Feb 16:47:14 16:53:33 23° 268° (W) 16:59:54 .
LilacSat-2 24 Feb 16:48:13 16:51:02 19° 66° (ENE) 16:53:51 437.200
NUDT-PHONESAT 24 Feb 16:48:41 16:50:55 15° 64° (ENE) 16:53:09 437.300
STARS 24 Feb 16:49:28 16:53:13 26° 95° (E) 16:56:56 437.465
NO-84 24 Feb 16:50:42 16:52:34 15° 126° (SE) 16:54:32 435.350 FM
MOZHAYETS 4 24 Feb 17:11:09 17:14:57 26° 294° (WNW) 17:18:44
PCSat 24 Feb 17:28:24 17:33:45 63° 305° (NW) 17:39:11 145.827
RS-15 24 Feb 17:28:38 17:40:02 55° 112° (ESE) 17:51:50 29.354- 29.394
DOVE 4 24 Feb 17:32:22 17:36:26 62° 74° (ENE) 17:40:35 437.250
M-CUBED/EXP-1 PRIME 24 Feb 17:36:43 17:40:09 33° 104° (ESE) 17:43:49 437.505
KAITUO 1B 24 Feb 17:44:33 17:48:19 65° 75° (ENE) 17:52:08 145.475/437.950
XW-2F 24 Feb 17:47:37 17:51:27 84° 77° (ENE) 17:55:19 145.980 - 146.000
KKS-1 24 Feb 17:48:47 17:52:54 37° 292° (WNW) 17:57:01 437.445
XW-2D 24 Feb 17:51:39 17:55:30 83° 258° (WSW) 17:59:24 145.860 - 145.880
XW-2B 24 Feb 17:56:42 18:00:32 74° 258° (WSW) 18:04:25 145.730 - 145.750
XW-2C 24 Feb 18:05:22 18:09:10 57° 260° (W) 18:12:59 145.795 - 145.815
CUBESAT XI-V 24 Feb 18:07:29 18:11:44 38° 291° (WNW) 18:15:59 437.345
CUTE-I 24 Feb 18:10:01 18:15:19 67° 258° (WSW) 18:20:40 437.470
XW-2A 24 Feb 18:15:53 18:18:47 26° 69° (ENE) 18:21:42 145.665 - 145.685
NUDT-PHONESAT 24 Feb 18:20:52 18:24:30 45° 261° (W) 18:28:09 437.300
LilacSat-2 24 Feb 18:21:29 18:25:04 36° 263° (W) 18:28:42 437.200
HO-68 24 Feb 18:24:43 18:31:33 49° 65° (ENE) 18:38:23 435.675
STARS 24 Feb 18:25:36 18:29:35 33° 292° (WNW) 18:33:34 437.465
NO-84 24 Feb 18:26:24 18:29:43 69° 326° (NW) 18:33:23 435.350 FM
CUTE 1.7 + AOD 2 24 Feb 18:29:18 18:33:02 30° 69° (ENE) 18:36:47 437.475
CUBEBUG 2 24 Feb 18:38:33 18:41:45 20° 63° (ENE) 18:45:02 437.445
AO-73 24 Feb 18:56:11 18:57:26 11° 58° (ENE) 18:58:40 145.935
Oscar 11 24 Feb 19:04:05 19:05:19 11° 59° (ENE) 19:06:33 .
M-CUBED/EXP-1 PRIME 24 Feb 19:11:37 19:14:29 21° 298° (WNW) 19:17:30 437.505
DOVE 4 24 Feb 19:13:03 19:14:38 12° 271° (W) 19:16:13 437.250
PCSat 24 Feb 19:15:06 19:18:16 15° 327° (NNW) 19:21:28 145.827
UWE-3 24 Feb 19:17:04 19:20:57 29° 67° (ENE) 19:24:55 435.000/436.395/437.385
AAUSAT CUBESAT 2 24 Feb 19:20:12 19:23:59 35° 70° (ENE) 19:27:46 437.432
KAITUO 1B 24 Feb 19:22:23 19:22:47 10° 272° (W) 19:23:10 145.475/437.950
SEEDS 24 Feb 19:27:44 19:31:59 84° 74° (ENE) 19:36:14 437.485
ZACube-1 24 Feb 19:40:05 19:44:01 31° 68° (ENE) 19:48:00 437.345
RS-15 24 Feb 19:40:48 19:52:39 57° 318° (NW) 20:04:52 29.354- 29.394
STRAND 1 24 Feb 19:47:21 19:52:28 61° 101° (ESE) 19:57:33 437.568
XW-2A 24 Feb 19:49:06 19:51:35 19° 266° (W) 19:54:04 145.665 - 145.685
NO-84 24 Feb 20:05:07 20:07:59 22° 347° (NNW) 20:11:02 435.350 FM
CUTE 1.7 + AOD 2 24 Feb 20:05:13 20:08:51 27° 265° (W) 20:12:30 437.475
HO-68 24 Feb 20:12:56 20:19:25 36° 264° (W) 20:25:57 435.675
CUBEBUG 2 24 Feb 20:13:43 20:17:59 49° 261° (W) 20:22:27 437.445
AO-73 24 Feb 20:28:25 20:32:52 86° 76° (ENE) 20:37:28 145.935
Oscar 11 24 Feb 20:36:24 20:40:46 88° 268° (W) 20:45:09 .
YUBILEINY 24 Feb 20:44:19 20:52:04 34° 67° (ENE) 20:59:43 435.215
UWE-3 24 Feb 20:53:24 20:57:20 30° 265° (W) 21:01:24 435.000/436.395/437.385
AAUSAT CUBESAT 2 24 Feb 20:56:17 20:59:31 22° 267° (W) 21:02:46 437.432
DELFI C3 24 Feb 21:00:10 21:04:02 53° 73° (ENE) 21:07:54 145.870
UNISAT 6 24 Feb 21:15:18 21:16:26 11° 87° (E) 21:17:35 437.425
ZACube-1 24 Feb 21:16:22 21:20:15 29° 266° (W) 21:24:14 437.345
TIGRISAT 24 Feb 21:16:38 21:16:58 10° 86° (E) 21:17:17 435.000
PRISM 24 Feb 21:18:00 21:21:16 23° 95° (E) 21:24:32 437.425
STRAND 1 24 Feb 21:27:30 21:31:11 20° 300° (WNW) 21:34:52 437.568
NO-84 24 Feb 21:43:50 21:46:43 20° 9° (N) 21:49:47 435.350 FM
RS-15 24 Feb 21:58:07 22:08:39 31° 350° (N) 22:19:14 29.354- 29.394
LO-87 24 Feb 21:58:09 22:01:14 29° 70° (ENE) 22:04:20 145.935 - 145.965
FO-29 24 Feb 22:06:16 22:12:26 26° 88° (E) 22:18:10 435.910
AO-73 24 Feb 22:09:11 22:09:45 10° 274° (W) 22:10:19 145.935
SO-50 24 Feb 22:16:05 22:20:13 31° 116° (ESE) 22:24:19 436.795
ESTCUBE 1 24 Feb 22:28:03 22:32:14 38° 69° (ENE) 22:36:26 437.505/2401.250
DELFI C3 24 Feb 22:37:14 22:39:10 13° 270° (W) 22:41:04 145.870
YUBILEINY 24 Feb 22:40:51 22:49:22 60° 269° (W) 22:57:49 435.215
UNISAT 6 24 Feb 22:49:02 22:53:48 87° 285° (WNW) 22:58:28 437.425
TIGRISAT 24 Feb 22:49:34 22:54:20 88° 106° (ESE) 22:59:00 435.000
PRISM 24 Feb 22:52:58 22:56:36 32° 292° (WNW) 23:00:13 437.425
DX 1 24 Feb 22:53:20 22:55:04 12° 59° (ENE) 22:56:49 434.975-435.025
VELOX 1 24 Feb 22:57:07 23:00:48 27° 66° (ENE) 23:04:30 145.980
AIST 2D 24 Feb 22:59:53 23:02:10 16° 92° (E) 23:04:26 435.315
O/OREOS (USA 219) 24 Feb 23:02:20 23:06:39 51° 109° (ESE) 23:11:02 437.305
UKube-1 24 Feb 23:06:53 23:08:36 12° 59° (ENE) 23:10:20 .
SPROUT 24 Feb 23:10:28 23:14:08 29° 67° (ENE) 23:17:48 437.525
NO-84 24 Feb 23:21:21 23:25:12 43° 29° (NNE) 23:29:18 435.350 FM
LO-87 24 Feb 23:32:12 23:34:44 19° 266° (W) 23:37:18 145.935 - 145.965
DUCHIFAT 1 24 Feb 23:47:31 23:51:17 30° 96° (E) 23:55:04 145.980
FO-29 24 Feb 23:50:25 23:58:07 70° 289° (WNW) 00:05:08 435.910
SO-50 24 Feb 23:56:15 00:00:37 38° 314° (NW) 00:04:56 436.795
EO-79 24 Feb 23:57:16 00:01:25 45° 99° (E) 00:05:31 145.935-145.965
50 SAT 25 Feb 00:02:21 00:05:50 88° 245° (WSW) 00:09:21 437.505
ESTCUBE 1 25 Feb 00:05:34 00:09:09 23° 266° (W) 00:12:45 437.505/2401.250
POLYITAN 1 25 Feb 00:14:29 00:18:48 71° 102° (ESE) 00:23:05 437.675
NANOSAT C BR1 25 Feb 00:14:37 00:18:53 65° 101° (E) 00:23:07 145.865
RS-15 25 Feb 00:14:38 00:25:51 37° 24° (NNE) 00:36:48 29.354- 29.394
QB50P2 25 Feb 00:17:25 00:21:45 82° 103° (ESE) 00:26:02 145.880/145.840
DX 1 25 Feb 00:26:19 00:30:38 79° 258° (WSW) 00:34:59 434.975-435.025
UNISAT 6 25 Feb 00:27:58 00:29:44 12° 302° (WNW) 00:31:30 437.425
TIGRISAT 25 Feb 00:28:16 00:30:17 13° 302° (WNW) 00:32:17 435.000
PCSat 25 Feb 00:31:16 00:36:03 30° 45° (NE) 00:40:47 145.827
AIST 2D 25 Feb 00:32:16 00:35:32 34° 289° (WNW) 00:38:46 435.315
VELOX 1 25 Feb 00:33:15 00:37:09 31° 263° (W) 00:41:06 145.980
UKube-1 25 Feb 00:39:43 00:44:01 79° 255° (WSW) 00:48:21 .
YUBILEINY 25 Feb 00:42:04 00:44:09 11° 290° (WNW) 00:46:13 435.215
O/OREOS (USA 219) 25 Feb 00:43:02 00:46:22 20° 308° (NW) 00:49:44 437.305
SPROUT 25 Feb 00:46:20 00:49:59 28° 265° (W) 00:53:42 437.525
BUGSAT 1 25 Feb 00:47:01 00:51:08 47° 99° (E) 00:55:14 437.445
NO-84 25 Feb 00:59:01 01:02:56 40° 225° (SW) 01:07:02 435.350 FM
DUCHIFAT 1 25 Feb 01:23:17 01:26:53 27° 293° (WNW) 01:30:28 145.980
Oscar 19 25 Feb 01:29:07 01:33:52 37° 97° (E) 01:38:36 437.125/150
EO-79 25 Feb 01:33:50 01:36:51 19° 296° (WNW) 01:39:52 145.935-145.965
FO-29 25 Feb 01:37:03 01:41:42 18° 310° (NW) 01:46:12 435.910
SO-50 25 Feb 01:41:31 01:42:22 10° 336° (NNW) 01:43:13 436.795
NANOSAT C BR1 25 Feb 01:51:50 01:54:05 14° 299° (WNW) 01:56:20 145.865
POLYITAN 1 25 Feb 01:51:58 01:54:01 13° 300° (WNW) 01:56:04 437.675
QB50P2 25 Feb 01:55:23 01:56:53 12° 301° (WNW) 01:58:24 145.880/145.840
ITUPSAT 1 25 Feb 02:04:07 02:08:50 57° 72° (ENE) 02:13:34 437.325
Gurwin Techsat 1B 25 Feb 02:09:10 02:14:21 49° 100° (E) 02:19:29 435.225
BEESAT 25 Feb 02:11:03 02:15:48 68° 73° (ENE) 02:20:35 436.000
PCSat 25 Feb 02:14:26 02:19:41 51° 245° (WSW) 02:24:55 145.827
BUGSAT 1 25 Feb 02:23:14 02:26:09 18° 296° (WNW) 02:29:05 437.445
RS-15 25 Feb 02:28:03 02:40:31 82° 53° (NE) 02:52:27 29.354- 29.394
MOZHAYETS 4 25 Feb 02:37:07 02:41:30 44° 70° (ENE) 02:45:55
AO-7 25 Feb 02:51:59 02:58:17 23° 91° (E) 03:04:31 .
Oscar 19 25 Feb 03:08:39 03:13:04 30° 295° (WNW) 03:17:30 437.125/150
KKS-1 25 Feb 03:12:28 03:16:15 28° 66° (ENE) 03:20:03 437.445
CUBESAT XI-V 25 Feb 03:35:32 03:39:33 30° 67° (ENE) 03:43:35 437.345
ITAMSAT 1 25 Feb 03:40:33 03:45:46 62° 101° (ESE) 03:50:57 435.822/435.867
ITUPSAT 1 25 Feb 03:43:50 03:47:01 18° 269° (W) 03:50:14 437.325
STARS 25 Feb 03:47:52 03:51:40 30° 67° (ENE) 03:55:29 437.465
Gurwin Techsat 1B 25 Feb 03:49:43 03:54:00 25° 297° (WNW) 03:58:17 435.225
BEESAT 25 Feb 03:51:25 03:54:04 15° 270° (W) 03:56:43 436.000
AO-85 25 Feb 03:59:23 04:02:52 22° 114° (ESE) 04:06:10 145.980
MOZHAYETS 4 25 Feb 04:15:19 04:18:51 21° 267° (W) 04:22:25
M-CUBED/EXP-1 PRIME 25 Feb 04:25:07 04:28:20 57° 68° (ENE) 04:31:32 437.505
RS-15 25 Feb 04:41:39 04:51:44 32° 257° (WSW) 05:01:30 29.354- 29.394
AO-7 25 Feb 04:43:35 04:51:57 82° 291° (WNW) 05:00:14 .
KKS-1 25 Feb 04:48:49 04:52:44 31° 264° (W) 04:56:41 437.445
SO-50 25 Feb 05:06:05 05:07:55 12° 27° (NNE) 05:09:43 436.795
CUBESAT XI-V 25 Feb 05:12:42 05:16:52 32° 264° (W) 05:21:02 437.345
ITAMSAT 1 25 Feb 05:21:01 05:24:47 20° 300° (WNW) 05:28:32 435.822/435.867
STARS 25 Feb 05:24:11 05:27:58 28° 264° (W) 05:31:47 437.465
STRAND 1 25 Feb 05:28:38 05:31:42 16° 58° (ENE) 05:34:48 437.568
DOVE 4 25 Feb 05:29:17 05:32:13 16° 91° (E) 05:35:12 437.250
XW-2B 25 Feb 05:30:18 05:30:38 10° 88° (E) 05:30:59 145.730 - 145.750
XW-2C 25 Feb 05:37:34 05:39:22 13° 90° (E) 05:41:12 145.795 - 145.815
AO-85 25 Feb 05:38:43 05:43:02 47° 310° (NW) 05:47:06 145.980
NUDT-PHONESAT 25 Feb 05:50:35 05:52:46 15° 91° (E) 05:54:57 437.300
LilacSat-2 25 Feb 05:53:04 05:56:00 20° 93° (E) 05:58:54 437.200
CUTE-I 25 Feb 06:25:02 06:30:09 42° 98° (E) 06:35:13 437.470
AO-7 25 Feb 06:37:36 06:43:33 22° 312° (NW) 06:49:28 .
SO-50 25 Feb 06:45:03 06:49:28 49° 49° (NE) 06:53:49 436.795
KAITUO 1B 25 Feb 06:47:49 06:51:36 71° 101° (ESE) 06:55:20 145.475/437.950
XW-2F 25 Feb 06:51:57 06:55:48 86° 284° (WNW) 06:59:35 145.980 - 146.000
XW-2D 25 Feb 06:56:24 07:00:14 72° 285° (WNW) 07:04:01 145.860 - 145.880
BEESAT 3 25 Feb 07:00:56 07:04:51 89° 125° (SE) 07:08:51 437.485
XW-2B 25 Feb 07:01:28 07:05:16 65° 286° (WNW) 07:09:02 145.730 - 145.750
STRAND 1 25 Feb 07:05:06 07:10:14 79° 254° (WSW) 07:15:26 437.568
DOVE 4 25 Feb 07:05:36 07:10:13 63° 286° (WNW) 07:15:06 437.250
XW-2A 25 Feb 07:08:31 07:11:16 22° 94° (E) 07:14:00 145.665 - 145.685
XW-2C 25 Feb 07:10:09 07:13:54 50° 287° (WNW) 07:17:35 145.795 - 145.815
SEEDS 25 Feb 07:11:30 07:13:08 12° 89° (E) 07:14:45 437.485
NUDT-PHONESAT 25 Feb 07:23:21 07:26:56 42° 288° (WNW) 07:30:28 437.300
AO-85 25 Feb 07:24:04 07:24:25 10° 331° (NNW) 07:24:46 145.980
LilacSat-2 25 Feb 07:26:53 07:30:21 31° 290° (WNW) 07:33:46 437.200
ISS 25 Feb 07:26:54 07:28:00 11° 132° (SE) 07:29:08 437.550
O/OREOS (USA 219) 25 Feb 07:31:38 07:34:56 19° 51° (NE) 07:38:13 437.305
HO-68 25 Feb 07:37:30 07:44:14 42° 98° (E) 07:50:54 435.675
BEESAT 2 25 Feb 07:38:26 07:42:24 89° 319° (NW) 07:46:26 435.950
CUTE 1.7 + AOD 2 25 Feb 07:47:17 07:51:21 44° 98° (E) 07:55:22 437.475
Tancredo 1 25 Feb 07:51:51 07:54:18 20° 136° (SE) 07:56:45 437.200
CUBEBUG 2 25 Feb 08:02:22 08:06:41 32° 95° (E) 08:10:54 437.445
CUTE-I 25 Feb 08:05:25 08:10:01 29° 296° (WNW) 08:14:35 437.470
PRISM 25 Feb 08:09:17 08:12:28 22° 66° (ENE) 08:15:40 437.425
UNISAT 6 25 Feb 08:15:42 08:17:49 13° 59° (ENE) 08:19:58 437.425
AO-73 25 Feb 08:15:46 08:18:26 15° 89° (E) 08:21:05 145.935
TIGRISAT 25 Feb 08:16:21 08:18:14 12° 58° (ENE) 08:20:09 435.000
FO-29 25 Feb 08:21:34 08:26:09 18° 50° (NE) 08:30:53 435.910
Oscar 11 25 Feb 08:22:56 08:25:25 15° 90° (E) 08:27:52 .
KAITUO 1B 25 Feb 08:24:20 08:25:03 10° 299° (WNW) 08:25:46 145.475/437.950
SO-50 25 Feb 08:26:10 08:29:36 22° 247° (WSW) 08:33:00 436.795
AAUSAT CUBESAT 2 25 Feb 08:35:13 08:39:13 48° 99° (E) 08:43:11 437.432
UWE-3 25 Feb 08:40:14 08:44:48 48° 99° (E) 08:49:16 435.000/436.395/437.385
BEESAT 3 25 Feb 08:40:45 08:43:02 15° 324° (NW) 08:45:22 437.485
XW-2A 25 Feb 08:41:09 08:44:00 24° 291° (WNW) 08:46:50 145.665 - 145.685
SEEDS 25 Feb 08:45:07 08:49:16 64° 286° (WNW) 08:53:22 437.485
ISS 25 Feb 09:00:40 09:03:58 77° 148° (SSE) 09:07:16 437.550
ZACube-1 25 Feb 09:01:56 09:06:23 48° 99° (E) 09:10:44 437.345
O/OREOS (USA 219) 25 Feb 09:10:13 09:14:43 58° 250° (WSW) 09:19:13 437.305
BEESAT 2 25 Feb 09:18:29 09:20:47 15° 325° (NW) 09:23:07 435.950
CUTE 1.7 + AOD 2 25 Feb 09:23:54 09:26:53 19° 296° (WNW) 09:29:49 437.475
HO-68 25 Feb 09:25:19 09:31:57 43° 297° (WNW) 09:38:34 435.675
Tancredo 1 25 Feb 09:27:04 09:30:18 65° 334° (NNW) 09:33:33 437.200
CUBEBUG 2 25 Feb 09:39:02 09:43:12 31° 293° (WNW) 09:47:21 437.445
PRISM 25 Feb 09:43:53 09:47:35 33° 262° (W) 09:51:19 437.425
YUBILEINY 25 Feb 09:48:15 09:55:55 35° 84° (E) 10:03:35 435.215
UNISAT 6 25 Feb 09:49:21 09:53:51 81° 256° (WSW) 09:58:30 437.425
TIGRISAT 25 Feb 09:49:42 09:54:12 86° 258° (WSW) 09:58:52 435.000
AO-73 25 Feb 09:50:34 09:55:04 59° 287° (WNW) 09:59:28 145.935
Oscar 11 25 Feb 09:57:39 10:01:54 55° 287° (WNW) 10:06:07 .
FO-29 25 Feb 10:02:36 10:09:44 70° 71° (ENE) 10:17:30 435.910
DELFI C3 25 Feb 10:09:50 10:13:46 67° 102° (ESE) 10:17:39 145.870
AAUSAT CUBESAT 2 25 Feb 10:11:42 10:14:19 17° 296° (WNW) 10:16:55 437.432
UWE-3 25 Feb 10:17:25 10:20:54 21° 296° (WNW) 10:24:20 435.000/436.395/437.385
ISS 25 Feb 10:37:41 10:40:41 30° 347° (NNW) 10:43:40 437.550
ZACube-1 25 Feb 10:38:59 10:42:18 20° 297° (WNW) 10:45:35 437.345
DUCHIFAT 1 25 Feb 10:41:07 10:44:45 29° 68° (ENE) 10:48:25 145.980
EO-79 25 Feb 10:51:18 10:55:18 43° 71° (ENE) 10:59:21 145.935-145.965
LO-87 25 Feb 10:56:19 10:59:27 27° 96° (E) 11:02:35 145.935 - 145.965
Tancredo 1 25 Feb 11:04:11 11:07:00 26° 353° (N) 11:09:48 437.200
AIST 2D 25 Feb 11:07:55 11:11:28 73° 258° (WSW) 11:15:03 435.315
NANOSAT C BR1 25 Feb 11:08:12 11:12:21 61° 74° (ENE) 11:16:33 145.865
POLYITAN 1 25 Feb 11:08:32 11:12:44 67° 74° (ENE) 11:17:00 437.675
QB50P2 25 Feb 11:11:29 11:15:43 78° 74° (ENE) 11:19:59 145.880/145.840
Oscar 19 25 Feb 11:13:34 11:14:28 10° 54° (NE) 11:15:22 437.125/150
BUGSAT 1 25 Feb 11:38:27 11:42:16 41° 70° (ENE) 11:46:09 437.445
YUBILEINY 25 Feb 11:43:41 11:52:19 56° 285° (WNW) 12:00:58 435.215
DELFI C3 25 Feb 11:46:37 11:48:01 12° 299° (WNW) 11:49:26 145.870
FO-29 25 Feb 11:49:32 11:55:23 26° 271° (W) 12:01:41 435.910
ESTCUBE 1 25 Feb 11:54:42 11:59:11 64° 102° (ESE) 12:03:37 437.505/2401.250
Gurwin Techsat 1B 25 Feb 11:55:23 11:58:18 15° 57° (ENE) 12:01:14 435.225
AO-7 25 Feb 12:07:38 12:09:53 11° 35° (NE) 12:12:07 .
DX 1 25 Feb 12:13:38 12:16:12 15° 91° (E) 12:18:46 434.975-435.025
ISS 25 Feb 12:14:54 12:17:46 26° 7° (N) 12:20:37 437.550
DUCHIFAT 1 25 Feb 12:16:47 12:20:24 27° 265° (W) 12:24:01 145.980
VELOX 1 25 Feb 12:20:36 12:24:46 39° 98° (E) 12:28:55 145.980
UKube-1 25 Feb 12:26:02 12:28:28 15° 91° (E) 12:30:53 .
AO-85 25 Feb 12:27:54 12:31:26 31° 46° (NE) 12:34:59 145.980
EO-79 25 Feb 12:28:20 12:31:16 18° 268° (W) 12:34:15 145.935-145.965
SPROUT 25 Feb 12:29:18 12:33:23 40° 98° (E) 12:37:27 437.525
LO-87 25 Feb 12:30:02 12:32:46 21° 293° (WNW) 12:35:32 145.935 - 145.965
Tancredo 1 25 Feb 12:40:58 12:43:54 30° 13° (NNE) 12:46:49 437.200
NANOSAT C BR1 25 Feb 12:46:28 12:48:29 13° 270° (W) 12:50:30 145.865
POLYITAN 1 25 Feb 12:47:20 12:49:00 12° 271° (W) 12:50:40 437.675
Oscar 19 25 Feb 12:47:44 12:52:50 67° 72° (ENE) 12:57:57 437.125/150
QB50P2 25 Feb 12:51:26 12:52:03 10° 272° (W) 12:52:40 145.880/145.840
50 SAT 25 Feb 12:58:11 13:01:40 76° 103° (ESE) 13:05:07 437.505
BUGSAT 1 25 Feb 13:15:01 13:17:49 18° 268° (W) 13:20:40 437.445
ITAMSAT 1 25 Feb 13:23:26 13:26:49 18° 59° (ENE) 13:30:14 435.822/435.867
Gurwin Techsat 1B 25 Feb 13:32:12 13:37:31 88° 252° (WSW) 13:42:53 435.225
ESTCUBE 1 25 Feb 13:32:52 13:35:29 15° 299° (WNW) 13:38:06 437.505/2401.250
BEESAT 3 25 Feb 13:39:22 13:41:52 16° 36° (NE) 13:44:22 437.485
YUBILEINY 25 Feb 13:47:58 13:51:29 13° 310° (NW) 13:55:01 435.215
DX 1 25 Feb 13:48:28 13:52:44 55° 288° (WNW) 13:57:00 434.975-435.025
ISS 25 Feb 13:51:21 13:54:38 68° 27° (NNE) 13:57:54 437.550
AO-7 25 Feb 13:52:47 14:00:24 41° 58° (ENE) 14:08:01 .
VELOX 1 25 Feb 13:57:33 14:01:00 23° 295° (WNW) 14:04:26 145.980
UKube-1 25 Feb 14:00:36 14:04:51 57° 288° (WNW) 14:09:04 .
ITUPSAT 1 25 Feb 14:04:33 14:06:32 12° 88° (E) 14:08:31 437.325
SPROUT 25 Feb 14:05:48 14:09:03 21° 295° (WNW) 14:12:17 437.525
AO-85 25 Feb 14:08:24 14:11:44 27° 244° (WSW) 14:15:06 145.980
BEESAT 25 Feb 14:10:34 14:13:14 15° 90° (E) 14:15:53 436.000
Tancredo 1 25 Feb 14:17:11 14:20:25 74° 212° (SSW) 14:23:37 437.200
BEESAT 2 25 Feb 14:17:31 14:20:09 16° 37° (NE) 14:22:45 435.950
Oscar 19 25 Feb 14:29:24 14:32:38 17° 270° (W) 14:35:52 437.125/150
